Location: Cactus School
(34.5700°N, 118.0931°W)
Time: 23:13:04
(UTC-07:00)

Transit 4A - Pass Details

Date: 15 April 2024
Orbit: 871 x 971 km, 66.8° (Epoch: 17 May)

Event Time Altitude Azimuth Distance (km) Brightness Sun altitude
Rises 23:13:51 0° 339° (NNW) 3,464 11.8 -39.4°
Reaches altitude 10° 23:16:26 10° 346° (NNW) 2,524 10.8 -39.7°
Enters shadow 23:18:41 23° 357° (N) 1,771 9.7 -39.9°
Maximum altitude 23:22:02 47° 59° (ENE) 1,150 - -40.3°
Drops below altitude 10° 23:27:41 10° 133° (SE) 2,546 - -40.8°
Sets 23:30:17 0° 139° (SE) 3,496 - -41.1°
